When you browse on this site, cookies collect data to enhance your experience and personalize the content and advertising you see.
Visit our Privacy Policy to learn more. By continuing to use the site, you agree to this use of cookies and data.
  • In Switzerland
  • List of Countries
  • For 7 days
  • Water Temperature
  • Weather Map
  • Weather Widgets
  • user-avatar
    Login

    Hourly Weather Krzyz

    Today, 26 May, Tuesday

    Time Temperature Precipitation Wind Pressure Humidity
    00:00 +9°C° 0 mm 3 mps 754 mmHg 96%
    01:00 +9°C° 0 mm 3 mps 754 mmHg 96%
    02:00 +8°C° 0 mm 3 mps 754 mmHg 97%
    03:00 +7°C° 0 mm 3 mps 754 mmHg 97%
    04:00 +7°C° 0 mm 3 mps 755 mmHg 98%
    05:00 +8°C° 0 mm 3 mps 755 mmHg 96%
    06:00 +8°C° 0 mm 4 mps 755 mmHg 94%
    07:00 +10°C° 0 mm 4 mps 756 mmHg 91%
    08:00 +11°C° 0 mm 4 mps 756 mmHg 87%
    09:00 +12°C° 0 mm 4 mps 756 mmHg 82%
    10:00 +13°C° 0 mm 4 mps 756 mmHg 78%
    11:00 +14°C° 0.2 mm 5 mps 756 mmHg 74%
    12:00 +15°C° 0.2 mm 5 mps 756 mmHg 70%
    13:00 +16°C° 0.2 mm 5 mps 755 mmHg 66%
    14:00 +16°C° 0.3 mm 5 mps 755 mmHg 67%
    15:00 +16°C° 0.3 mm 5 mps 755 mmHg 67%
    16:00 +16°C° 0.3 mm 6 mps 755 mmHg 68%
    17:00 +15°C° 0.1 mm 5 mps 755 mmHg 73%
    18:00 +15°C° 0.1 mm 4 mps 755 mmHg 78%
    19:00 +14°C° 0.1 mm 3 mps 755 mmHg 83%
    20:00 +12°C° 0 mm 3 mps 756 mmHg 86%
    21:00 +11°C° 0 mm 3 mps 756 mmHg 89%
    22:00 +10°C° 0 mm 3 mps 756 mmHg 92%
    23:00 +10°C° 0 mm 3 mps 756 mmHg 93%

    Tomorrow, 27 May, Wednesday

    Time Temperature Precipitation Wind Pressure Humidity
    00:00 +9°C° 0 mm 3 mps 756 mmHg 94%
    01:00 +8°C° 0 mm 3 mps 756 mmHg 95%
    02:00 +8°C° 0 mm 3 mps 756 mmHg 96%
    03:00 +8°C° 0 mm 3 mps 756 mmHg 96%
    04:00 +7°C° 0 mm 2 mps 756 mmHg 96%
    05:00 +8°C° 0 mm 3 mps 756 mmHg 92%
    06:00 +10°C° 0 mm 3 mps 756 mmHg 87%
    07:00 +11°C° 0 mm 3 mps 756 mmHg 83%
    08:00 +13°C° 0 mm 3 mps 756 mmHg 77%
    09:00 +14°C° 0 mm 4 mps 756 mmHg 71%
    10:00 +17°C° 0 mm 4 mps 756 mmHg 64%
    11:00 +18°C° 0 mm 4 mps 755 mmHg 62%
    12:00 +18°C° 0 mm 4 mps 755 mmHg 59%
    13:00 +19°C° 0 mm 4 mps 755 mmHg 56%
    14:00 +19°C° 0 mm 4 mps 754 mmHg 57%
    15:00 +19°C° 0 mm 5 mps 754 mmHg 57%
    16:00 +19°C° 0 mm 5 mps 754 mmHg 58%
    17:00 +18°C° 0 mm 4 mps 754 mmHg 64%
    18:00 +16°C° 0 mm 3 mps 753 mmHg 70%
    19:00 +15°C° 0 mm 2 mps 753 mmHg 76%
    20:00 +14°C° 0 mm 2 mps 753 mmHg 77%
    21:00 +13°C° 0 mm 1 mps 753 mmHg 77%
    22:00 +12°C° 0 mm 1 mps 753 mmHg 78%
    23:00 +12°C° 0 mm 1 mps 753 mmHg 78%

    Day after tomorrow, 28 May, Thursday

    Time Temperature Precipitation Wind Pressure Humidity
    00:00 +12°C° 0 mm 2 mps 753 mmHg 79%
    01:00 +11°C° 0 mm 3 mps 753 mmHg 79%
    02:00 +11°C° 0.4 mm 3 mps 753 mmHg 84%
    03:00 +11°C° 0.4 mm 3 mps 753 mmHg 89%
    04:00 +11°C° 0.4 mm 3 mps 753 mmHg 94%
    05:00 +11°C° 0 mm 4 mps 753 mmHg 90%
    06:00 +11°C° 0 mm 4 mps 753 mmHg 85%
    07:00 +10°C° 0 mm 5 mps 753 mmHg 81%
    08:00 +12°C° 0 mm 5 mps 753 mmHg 75%
    09:00 +13°C° 0 mm 6 mps 752 mmHg 70%
    10:00 +14°C° 0 mm 6 mps 752 mmHg 64%
    11:00 +15°C° 0 mm 6 mps 752 mmHg 63%
    12:00 +16°C° 0 mm 6 mps 752 mmHg 61%
    13:00 +17°C° 0 mm 6 mps 751 mmHg 59%
    14:00 +17°C° 0.2 mm 6 mps 751 mmHg 60%
    15:00 +17°C° 0.2 mm 6 mps 751 mmHg 61%
    16:00 +16°C° 0.2 mm 6 mps 751 mmHg 62%
    17:00 +15°C° 0.2 mm 6 mps 751 mmHg 69%
    18:00 +14°C° 0.2 mm 5 mps 751 mmHg 75%
    19:00 +12°C° 0.2 mm 4 mps 751 mmHg 81%
    20:00 +11°C° 0 mm 4 mps 751 mmHg 82%
    21:00 +10°C° 0 mm 4 mps 752 mmHg 82%
    22:00 +8°C° 0 mm 4 mps 752 mmHg 82%
    23:00 +7°C° 0 mm 4 mps 752 mmHg 84%

    29 May, Friday

    Time Temperature Precipitation Wind Pressure Humidity
    00:00 +7°C° 0 mm 3 mps 752 mmHg 85%
    01:00 +5°C° 0 mm 3 mps 752 mmHg 87%
    02:00 +4°C° 0 mm 3 mps 752 mmHg 87%
    03:00 +4°C° 0 mm 3 mps 752 mmHg 87%
    04:00 +4°C° 0 mm 3 mps 752 mmHg 87%
    05:00 +5°C° 0 mm 4 mps 752 mmHg 81%
    06:00 +6°C° 0 mm 4 mps 752 mmHg 75%
    07:00 +8°C° 0 mm 5 mps 752 mmHg 69%
    08:00 +9°C° 0 mm 5 mps 752 mmHg 64%
    09:00 +10°C° 0 mm 5 mps 752 mmHg 60%
    10:00 +12°C° 0 mm 5 mps 752 mmHg 55%
    11:00 +13°C° 0.1 mm 5 mps 752 mmHg 54%
    12:00 +14°C° 0.1 mm 5 mps 751 mmHg 53%
    13:00 +14°C° 0.1 mm 5 mps 751 mmHg 53%
    14:00 +14°C° 0.1 mm 5 mps 750 mmHg 53%
    15:00 +14°C° 0.1 mm 5 mps 750 mmHg 54%
    16:00 +14°C° 0.1 mm 5 mps 750 mmHg 54%
    17:00 +13°C° 0.2 mm 4 mps 750 mmHg 63%
    18:00 +12°C° 0.2 mm 4 mps 749 mmHg 72%
    19:00 +11°C° 0.2 mm 3 mps 749 mmHg 81%
    20:00 +10°C° 0.1 mm 3 mps 750 mmHg 83%
    21:00 +9°C° 0.1 mm 3 mps 750 mmHg 84%
    22:00 +7°C° 0.1 mm 3 mps 750 mmHg 86%
    23:00 +7°C° 0 mm 3 mps 750 mmHg 87%

    30 May, Saturday

    Time Temperature Precipitation Wind Pressure Humidity
    00:00 +5°C° 0 mm 3 mps 750 mmHg 88%
    01:00 +4°C° 0 mm 3 mps 750 mmHg 89%
    02:00 +5°C° 0 mm 2 mps 750 mmHg 90%
    03:00 +5°C° 0 mm 2 mps 749 mmHg 91%
    04:00 +4°C° 0 mm 2 mps 749 mmHg 93%
    05:00 +5°C° 0 mm 3 mps 749 mmHg 89%
    06:00 +6°C° 0 mm 4 mps 749 mmHg 86%
    07:00 +7°C° 0 mm 4 mps 749 mmHg 82%
    08:00 +7°C° 0 mm 4 mps 749 mmHg 85%
    09:00 +7°C° 0 mm 4 mps 749 mmHg 87%
    10:00 +8°C° 0 mm 3 mps 749 mmHg 89%
    11:00 +9°C° 0 mm 3 mps 749 mmHg 87%
    12:00 +9°C° 0 mm 3 mps 749 mmHg 86%
    13:00 +10°C° 0 mm 3 mps 749 mmHg 85%
    14:00 +11°C° 0 mm 3 mps 748 mmHg 84%
    15:00 +11°C° 0 mm 3 mps 748 mmHg 84%
    16:00 +12°C° 0 mm 3 mps 748 mmHg 83%
    17:00 +12°C° 0.1 mm 3 mps 748 mmHg 85%
    18:00 +12°C° 0.1 mm 3 mps 748 mmHg 87%
    19:00 +12°C° 0.1 mm 3 mps 748 mmHg 89%
    20:00 +11°C° 0 mm 3 mps 748 mmHg 92%
    21:00 +10°C° 0 mm 3 mps 748 mmHg 95%
    22:00 +9°C° 0 mm 3 mps 748 mmHg 98%
    23:00 +10°C° 0.4 mm 3 mps 747 mmHg 98%

    31 May, Sunday

    Time Temperature Precipitation Wind Pressure Humidity
    00:00 +10°C° 0.4 mm 3 mps 747 mmHg 97%
    01:00 +10°C° 0.4 mm 3 mps 747 mmHg 97%
    02:00 +10°C° 2.2 mm 4 mps 746 mmHg 97%
    03:00 +10°C° 2.2 mm 4 mps 746 mmHg 98%
    04:00 +10°C° 2.2 mm 4 mps 746 mmHg 98%
    05:00 +9°C° 1.1 mm 5 mps 746 mmHg 97%
    06:00 +10°C° 1.1 mm 5 mps 746 mmHg 95%
    07:00 +10°C° 1.1 mm 6 mps 746 mmHg 94%
    08:00 +11°C° 0 mm 6 mps 746 mmHg 87%
    09:00 +14°C° 0 mm 6 mps 746 mmHg 80%
    10:00 +15°C° 0 mm 6 mps 746 mmHg 72%
    11:00 +16°C° 0 mm 6 mps 746 mmHg 70%
    12:00 +17°C° 0 mm 6 mps 745 mmHg 67%
    13:00 +17°C° 0 mm 6 mps 745 mmHg 65%
    14:00 +17°C° 0.4 mm 6 mps 745 mmHg 68%
    15:00 +17°C° 0.4 mm 6 mps 745 mmHg 71%
    16:00 +16°C° 0.4 mm 6 mps 745 mmHg 74%
    17:00 +15°C° 0.4 mm 6 mps 745 mmHg 76%
    18:00 +14°C° 0.4 mm 5 mps 745 mmHg 79%
    19:00 +13°C° 0.4 mm 5 mps 745 mmHg 81%
    20:00 +13°C° 0.1 mm 5 mps 745 mmHg 83%
    21:00 +12°C° 0.1 mm 4 mps 745 mmHg 85%
    22:00 +11°C° 0.1 mm 4 mps 744 mmHg 87%
    23:00 +10°C° 0.6 mm 5 mps 744 mmHg 89%
    Show more